SKYSAT-C3

Last updated on Sun Jun 21 2026 00:02:52 GMT+0000 (Coordinated Universal Time)

1 41774U 16058E 26171.36592513 .00020111 00000+0 32765-3 0 9994 2 41774 96.9003 202.0899 0001389 101.4792 258.6618 15.52656860546608
UTC large
Height (km)
Speed (km/s)
/
Latitude / Longitude
Inclination (degrees)
Orbital Period (minutes)
Azimuth
Elevation
Range (km)
Doppler Factor

Next 0 passes for location: London (51.5072 / 0.1276)

No passes found over London.
SKYSAT-C3